timestamp,wind_dir_avg,wind_spd_avg,wind_spd_max_dir,wind_spd_gust,battery_voltage,lat,long
2022-12-21 00:04:00+00:00,41.0,13.82,50.0,19.27,12.33,47.59359,-54.27349
2022-12-21 00:14:00+00:00,42.0,12.3,43.0,14.08,12.25,47.59359,-54.27349
2022-12-21 00:24:00+00:00,35.0,13.84,35.0,15.24,12.25,47.59359,-54.27349
2022-12-21 00:34:00+00:00,39.0,12.49,41.0,14.81,12.25,47.59359,-54.27349
2022-12-21 00:44:00+00:00,34.0,11.84,38.0,14.55,12.25,47.59359,-54.27349
2022-12-21 00:54:00+00:00,42.0,12.49,40.0,14.51,12.25,47.59359,-54.27349
2022-12-21 01:04:00+00:00,40.0,12.32,39.0,13.83,12.25,47.59359,-54.27349
2022-12-21 01:14:01+00:00,40.0,12.95,37.0,14.28,12.17,47.59359,-54.27349
2022-12-21 01:24:01+00:00,37.0,11.63,42.0,13.29,12.17,47.59359,-54.27349
2022-12-21 01:34:01+00:00,37.0,13.34,35.0,15.25,12.17,47.59359,-54.27349
2022-12-21 01:44:01+00:00,37.0,12.4,40.0,14.65,12.17,47.59359,-54.27349
2022-12-21 01:54:01+00:00,43.0,11.82,45.0,13.74,12.17,47.59359,-54.27349
2022-12-21 02:04:01+00:00,44.0,12.38,43.0,13.38,12.17,47.59359,-54.27349
2022-12-21 02:14:01+00:00,36.0,12.7,39.0,15.13,12.09,47.59359,-54.27349
2022-12-21 02:24:01+00:00,37.0,12.73,40.0,14.68,12.09,47.59359,-54.27349
2022-12-21 02:34:01+00:00,31.0,10.73,45.0,13.38,12.09,47.59359,-54.27349
2022-12-21 02:44:01+00:00,35.0,10.34,45.0,12.91,12.09,47.59359,-54.27349
2022-12-21 02:54:01+00:00,37.0,10.73,45.0,13.54,12.09,47.59359,-54.27349
2022-12-21 03:04:01+00:00,26.0,10.63,32.0,13.75,12.09,47.59359,-54.27349
2022-12-21 03:14:00+00:00,30.0,11.74,36.0,14.51,12.09,47.59359,-54.27349
2022-12-21 03:24:00+00:00,35.0,11.82,41.0,13.57,12.09,47.59359,-54.27349
2022-12-21 03:34:00+00:00,20.0,9.09,32.0,12.38,12.09,47.59359,-54.27349
2022-12-21 03:44:00+00:00,21.0,11.13,33.0,14.08,12.09,47.59359,-54.27349
2022-12-21 03:54:00+00:00,24.0,11.13,36.0,13.51,12.09,47.59359,-54.27349
2022-12-21 04:04:00+00:00,22.0,9.28,18.0,10.46,12.09,47.59359,-54.27349
2022-12-21 04:14:00+00:00,17.0,9.2,18.0,9.99,12.09,47.59359,-54.27349
2022-12-21 04:24:00+00:00,6.0,8.08,8.0,10.35,12.09,47.59359,-54.27349
2022-12-21 04:34:00+00:00,16.0,9.59,16.0,11.02,12.09,47.59359,-54.27349
2022-12-21 04:44:00+00:00,19.0,10.05,15.0,11.29,12.09,47.59359,-54.27349
2022-12-21 04:54:00+00:00,16.0,8.81,16.0,9.79,12.09,47.59359,-54.27349
2022-12-21 05:04:00+00:00,15.0,9.03,18.0,9.66,12.09,47.59359,-54.27349
2022-12-21 05:14:01+00:00,10.0,8.29,17.0,10.1,12.09,47.59359,-54.27349
2022-12-21 05:24:01+00:00,12.0,9.06,16.0,10.19,12.09,47.59359,-54.27349
2022-12-21 05:34:01+00:00,9.0,9.43,3.0,13.32,12.09,47.59359,-54.27349
2022-12-21 05:44:01+00:00,14.0,9.77,16.0,10.87,12.09,47.59359,-54.27349
2022-12-21 05:54:01+00:00,16.0,10.65,16.0,11.64,12.09,47.59359,-54.27349
2022-12-21 06:04:01+00:00,11.0,9.0,18.0,10.81,12.09,47.59359,-54.27349
2022-12-21 06:14:00+00:00,9.0,9.76,15.0,12.47,12.01,47.59359,-54.27349
2022-12-21 06:24:00+00:00,19.0,11.32,44.0,16.08,12.01,47.59359,-54.27349
2022-12-21 06:34:00+00:00,8.0,9.88,15.0,12.02,12.01,47.59359,-54.27349
2022-12-21 06:44:00+00:00,10.0,10.32,5.0,12.56,12.01,47.59359,-54.27349
2022-12-21 06:54:00+00:00,7.0,9.14,16.0,10.85,12.01,47.59359,-54.27349
2022-12-21 07:04:00+00:00,4.0,9.59,1.0,11.14,12.01,47.59359,-54.27349
2022-12-21 07:14:00+00:00,358.0,9.67,0.0,11.02,12.01,47.59359,-54.27349
2022-12-21 07:24:00+00:00,2.0,10.0,4.0,11.64,12.01,47.59359,-54.27349
2022-12-21 07:34:00+00:00,8.0,9.41,7.0,11.4,12.01,47.59359,-54.27349
2022-12-21 07:44:00+00:00,7.0,8.38,8.0,11.61,12.01,47.59359,-54.27349
2022-12-21 07:54:00+00:00,12.0,8.71,3.0,10.41,12.01,47.59359,-54.27349
2022-12-21 08:04:00+00:00,6.0,9.34,358.0,11.01,12.01,47.59359,-54.27349
2022-12-21 08:14:00+00:00,8.0,8.9,356.0,10.64,12.01,47.59359,-54.27349
2022-12-21 08:24:00+00:00,10.0,10.3,14.0,12.26,12.01,47.59359,-54.27349
2022-12-21 08:34:00+00:00,7.0,9.7,359.0,11.41,12.01,47.59359,-54.27349
2022-12-21 08:44:00+00:00,5.0,8.14,3.0,9.26,12.01,47.59359,-54.27349
2022-12-21 08:54:00+00:00,1.0,9.89,5.0,11.51,12.01,47.59359,-54.27349
2022-12-21 09:04:00+00:00,1.0,10.34,6.0,11.65,12.01,47.59359,-54.27349
2022-12-21 09:14:01+00:00,0.0,9.36,3.0,10.99,12.01,47.59359,-54.27349
2022-12-21 09:24:01+00:00,2.0,8.89,10.0,10.68,12.01,47.59359,-54.27349
2022-12-21 09:34:01+00:00,0.0,9.96,3.0,11.59,12.01,47.59359,-54.27349
2022-12-21 09:44:01+00:00,357.0,11.33,355.0,12.68,12.01,47.59359,-54.27349
2022-12-21 09:54:01+00:00,358.0,11.19,354.0,12.95,12.01,47.59359,-54.27349
2022-12-21 10:04:01+00:00,7.0,10.85,6.0,12.3,12.01,47.59359,-54.27349
2022-12-21 10:14:00+00:00,1.0,10.16,0.0,11.8,12.01,47.59359,-54.27349
2022-12-21 10:24:00+00:00,4.0,9.61,4.0,12.61,12.01,47.59359,-54.27349
2022-12-21 10:34:00+00:00,2.0,10.01,2.0,12.33,12.01,47.59359,-54.27349
2022-12-21 10:44:00+00:00,2.0,11.95,1.0,13.26,12.01,47.59359,-54.27349
2022-12-21 10:54:00+00:00,0.0,10.37,358.0,13.04,12.01,47.59359,-54.27349
2022-12-21 11:04:00+00:00,0.0,10.28,358.0,11.6,12.01,47.59359,-54.27349
2022-12-21 11:14:00+00:00,0.0,10.37,10.0,11.74,12.01,47.59359,-54.27349
2022-12-21 11:24:00+00:00,1.0,9.64,3.0,13.3,12.01,47.59359,-54.27349
2022-12-21 11:34:00+00:00,1.0,9.52,1.0,11.35,12.01,47.59359,-54.27349
2022-12-21 11:44:00+00:00,358.0,9.06,10.0,10.26,12.01,47.59359,-54.27349
2022-12-21 11:54:00+00:00,358.0,10.38,357.0,11.59,12.01,47.59359,-54.27349
2022-12-21 12:04:00+00:00,0.0,9.2,1.0,10.84,12.01,47.59359,-54.27349
2022-12-21 12:14:00+00:00,358.0,10.3,356.0,12.34,12.09,47.59359,-54.27349
2022-12-21 12:24:00+00:00,358.0,11.5,357.0,12.91,12.09,47.59359,-54.27349
2022-12-21 12:34:00+00:00,356.0,11.22,352.0,13.21,12.09,47.59359,-54.27349
2022-12-21 12:44:00+00:00,0.0,9.83,4.0,12.15,12.09,47.59359,-54.27349
2022-12-21 12:54:00+00:00,359.0,12.28,355.0,13.76,12.09,47.59359,-54.27349
2022-12-21 13:04:00+00:00,2.0,11.33,7.0,12.9,12.09,47.59359,-54.27349
2022-12-21 13:14:00+00:00,0.0,11.1,1.0,12.51,12.97,47.59359,-54.27349
2022-12-21 13:24:00+00:00,357.0,10.63,354.0,11.46,12.97,47.59359,-54.27349
2022-12-21 13:34:00+00:00,359.0,8.98,2.0,10.6,12.97,47.59359,-54.27349
2022-12-21 13:44:00+00:00,5.0,11.72,3.0,12.96,12.97,47.59359,-54.27349
2022-12-21 13:54:00+00:00,357.0,9.72,356.0,10.86,12.97,47.59359,-54.27349
2022-12-21 14:04:00+00:00,0.0,10.22,5.0,12.02,12.97,47.59359,-54.27349
2022-12-21 14:14:00+00:00,1.0,10.83,0.0,12.1,12.97,47.59359,-54.27349
2022-12-21 14:24:00+00:00,1.0,10.26,0.0,11.85,12.97,47.59359,-54.27349
2022-12-21 14:34:00+00:00,359.0,10.89,357.0,12.12,12.97,47.59359,-54.27349
2022-12-21 14:44:00+00:00,357.0,10.62,356.0,11.86,12.97,47.59359,-54.27349
2022-12-21 14:54:00+00:00,1.0,10.79,0.0,12.58,12.97,47.59359,-54.27349
2022-12-21 15:04:00+00:00,0.0,10.59,4.0,12.78,12.97,47.59359,-54.27349
2022-12-21 15:14:00+00:00,358.0,10.36,357.0,11.33,13.84,47.59359,-54.27349
2022-12-21 15:24:00+00:00,0.0,10.82,0.0,12.15,13.84,47.59359,-54.27349
2022-12-21 15:34:00+00:00,358.0,11.04,1.0,12.31,13.84,47.59359,-54.27349
2022-12-21 15:44:00+00:00,0.0,11.7,355.0,12.73,13.84,47.59359,-54.27349
2022-12-21 15:54:00+00:00,358.0,9.87,358.0,11.13,13.84,47.59359,-54.27349
2022-12-21 16:04:00+00:00,359.0,11.92,359.0,13.11,13.84,47.59359,-54.27349
2022-12-21 16:14:01+00:00,357.0,11.67,356.0,13.85,13.92,47.59359,-54.27349
2022-12-21 16:24:01+00:00,1.0,8.81,3.0,11.06,13.92,47.59359,-54.27349
2022-12-21 16:34:01+00:00,0.0,10.87,3.0,12.51,13.92,47.59359,-54.27349
2022-12-21 16:44:01+00:00,359.0,10.46,7.0,12.07,13.92,47.59359,-54.27349
2022-12-21 16:54:01+00:00,3.0,11.64,4.0,13.21,13.92,47.59359,-54.27349
2022-12-21 17:04:01+00:00,3.0,9.93,356.0,12.31,13.92,47.59359,-54.27349
2022-12-21 17:14:00+00:00,1.0,12.34,4.0,14.73,13.6,47.59359,-54.27349
2022-12-21 17:24:00+00:00,0.0,9.56,0.0,11.36,13.6,47.59359,-54.27349
2022-12-21 17:34:00+00:00,1.0,11.88,356.0,13.56,13.6,47.59359,-54.27349
2022-12-21 17:44:00+00:00,356.0,9.42,352.0,12.69,13.6,47.59359,-54.27349
2022-12-21 17:54:00+00:00,0.0,7.92,1.0,9.17,13.6,47.59359,-54.27349
2022-12-21 18:04:00+00:00,3.0,9.63,3.0,11.44,13.6,47.59359,-54.27349
2022-12-21 18:14:01+00:00,2.0,9.84,4.0,11.5,13.44,47.59359,-54.27349
2022-12-21 18:24:01+00:00,345.0,10.01,340.0,12.45,13.44,47.59359,-54.27349
2022-12-21 18:34:01+00:00,1.0,10.7,1.0,11.8,13.44,47.59359,-54.27349
2022-12-21 18:44:01+00:00,0.0,10.07,9.0,12.17,13.44,47.59359,-54.27349
2022-12-21 18:54:01+00:00,3.0,8.9,2.0,10.23,13.44,47.59359,-54.27349
2022-12-21 19:04:01+00:00,4.0,10.42,1.0,12.66,13.44,47.59359,-54.27349
2022-12-21 19:14:00+00:00,359.0,8.84,359.0,10.23,13.6,47.59359,-54.27349
2022-12-21 19:24:00+00:00,0.0,9.18,1.0,10.39,13.6,47.59359,-54.27349
2022-12-21 19:34:00+00:00,6.0,8.2,7.0,10.2,13.6,47.59359,-54.27349
2022-12-21 19:44:00+00:00,6.0,6.98,16.0,8.71,13.6,47.59359,-54.27349
2022-12-21 19:54:00+00:00,4.0,7.0,335.0,8.32,13.6,47.59359,-54.27349
2022-12-21 20:04:00+00:00,4.0,6.76,12.0,8.19,13.6,47.59359,-54.27349
2022-12-21 20:14:00+00:00,332.0,6.85,333.0,7.85,12.57,47.59359,-54.27349
2022-12-21 20:24:00+00:00,348.0,6.9,334.0,8.03,12.57,47.59359,-54.27349
2022-12-21 20:34:00+00:00,6.0,5.97,14.0,6.87,12.57,47.59359,-54.27349
2022-12-21 20:44:00+00:00,351.0,6.0,336.0,7.65,12.57,47.59359,-54.27349
2022-12-21 20:54:00+00:00,336.0,6.0,327.0,7.13,12.57,47.59359,-54.27349
2022-12-21 21:04:00+00:00,348.0,5.38,329.0,6.97,12.57,47.59359,-54.27349
2022-12-21 21:14:01+00:00,353.0,5.54,328.0,6.69,12.49,47.59359,-54.27349
2022-12-21 21:24:01+00:00,352.0,5.96,355.0,7.03,12.49,47.59359,-54.27349
2022-12-21 21:34:01+00:00,354.0,6.64,336.0,8.12,12.49,47.59359,-54.27349
2022-12-21 21:44:01+00:00,345.0,6.61,340.0,8.47,12.49,47.59359,-54.27349
2022-12-21 21:54:01+00:00,336.0,7.96,336.0,9.37,12.49,47.59359,-54.27349
2022-12-21 22:04:01+00:00,328.0,8.11,331.0,9.28,12.49,47.59359,-54.27349
2022-12-21 22:14:00+00:00,340.0,8.71,338.0,9.91,12.49,47.59359,-54.27349
2022-12-21 22:24:00+00:00,335.0,7.7,340.0,9.55,12.49,47.59359,-54.27349
2022-12-21 22:34:00+00:00,334.0,8.17,340.0,10.04,12.49,47.59359,-54.27349
2022-12-21 22:44:00+00:00,327.0,8.12,327.0,8.88,12.49,47.59359,-54.27349
2022-12-21 22:54:00+00:00,336.0,7.09,337.0,7.72,12.49,47.59359,-54.27349
2022-12-21 23:04:00+00:00,332.0,7.52,327.0,9.09,12.49,47.59359,-54.27349
2022-12-21 23:14:00+00:00,338.0,7.94,342.0,8.97,12.41,47.59359,-54.27349
2022-12-21 23:24:00+00:00,333.0,6.86,336.0,7.87,12.41,47.59359,-54.27349
2022-12-21 23:34:00+00:00,338.0,7.65,340.0,9.06,12.41,47.59359,-54.27349
2022-12-21 23:44:00+00:00,342.0,8.53,345.0,9.79,12.41,47.59359,-54.27349
2022-12-21 23:54:00+00:00,337.0,8.3,337.0,8.75,12.41,47.59359,-54.27349
